RYR87MM EPGD-EGNM

Flight info

Callsign RYR87MM
Flight time 2h 9m
Altitude 40000
Route DEXIR3B DEXIR T671 AGODU DCT BINKA L23 LEGSA DCT BERIM DCT MIMVA DCT OTBED Y70 GOLES DCT
Aircraft B38M/M-SDE1FGHILORVWXY/HB1

Departure

Time 2026-05-03 21:35
Airport Gdańsk Lech Wałęsa Airport (EPGD)

Arrival

Time 2026-05-03 23:44
Airport Leeds Bradford Airport (EGNM)
Time Latitude Longitude Altitude Speed Heading
2026-05-03 20:40 54.38204 18.46251 462 ft 0 kts 23°
2026-05-03 21:07 54.38185 18.46240 458 ft 4 kts
2026-05-03 21:07 54.38162 18.46250 459 ft 4 kts 316°
2026-05-03 21:07 54.38148 18.46287 462 ft 3 kts 293°
2026-05-03 21:07 54.38146 18.46295 462 ft 0 kts 293°
2026-05-03 21:14 54.38146 18.46294 462 ft 0 kts 293°
2026-05-03 21:14 54.38147 18.46294 462 ft 0 kts 293°
2026-05-03 21:14 54.38153 18.46268 459 ft 4 kts 292°
2026-05-03 21:15 54.38168 18.46204 461 ft 7 kts 292°
2026-05-03 21:15 54.38168 18.46127 462 ft 5 kts 242°
2026-05-03 21:15 54.38147 18.46095 462 ft 2 kts 204°
2026-05-03 21:15 54.38143 18.46091 462 ft 0 kts 204°
2026-05-03 21:26 54.38111 18.46075 462 ft 10 kts 186°
2026-05-03 21:26 54.38060 18.46135 462 ft 9 kts 120°
2026-05-03 21:26 54.38031 18.46242 462 ft 11 kts 113°
2026-05-03 21:26 54.37997 18.46381 462 ft 15 kts 112°
2026-05-03 21:27 54.37946 18.46589 462 ft 19 kts 112°
2026-05-03 21:27 54.37891 18.46810 460 ft 19 kts 114°
2026-05-03 21:27 54.37842 18.47001 462 ft 18 kts 113°
2026-05-03 21:27 54.37791 18.47206 460 ft 20 kts 113°
2026-05-03 21:28 54.37736 18.47432 464 ft 21 kts 113°
2026-05-03 21:28 54.37725 18.47476 464 ft 21 kts 113°
2026-05-03 21:28 54.37692 18.47608 467 ft 21 kts 113°
2026-05-03 21:29 54.37653 18.47765 468 ft 20 kts 113°
2026-05-03 21:29 54.37620 18.47897 471 ft 20 kts 114°
2026-05-03 21:29 54.37565 18.48115 477 ft 20 kts 113°
2026-05-03 21:29 54.37540 18.48218 476 ft 19 kts 111°
2026-05-03 21:30 54.37507 18.48355 481 ft 18 kts 111°
2026-05-03 21:30 54.37478 18.48477 487 ft 17 kts 112°
2026-05-03 21:30 54.37443 18.48620 482 ft 16 kts 113°
2026-05-03 21:31 54.37400 18.48790 487 ft 16 kts 113°
2026-05-03 21:31 54.37356 18.48967 494 ft 17 kts 113°
2026-05-03 21:31 54.37312 18.49142 493 ft 15 kts 113°
2026-05-03 21:31 54.37287 18.49237 490 ft 9 kts 123°
2026-05-03 21:32 54.37242 18.49276 499 ft 6 kts 182°
2026-05-03 21:32 54.37214 18.49261 491 ft 0 kts 208°
2026-05-03 21:33 54.37210 18.49257 492 ft 2 kts 213°
2026-05-03 21:33 54.37186 18.49224 490 ft 7 kts 220°
2026-05-03 21:33 54.37151 18.49142 495 ft 10 kts 248°
2026-05-03 21:33 54.37162 18.49026 493 ft 11 kts 296°
2026-05-03 21:34 54.37165 18.49016 495 ft 0 kts 294°
2026-05-03 21:34 54.37166 18.49013 495 ft 3 kts 294°
2026-05-03 21:34 54.37265 18.48610 491 ft 83 kts 292°
2026-05-03 21:35 54.37611 18.47214 464 ft 168 kts 292°
2026-05-03 21:35 54.38035 18.45322 591 ft 156 kts 288°
2026-05-03 21:35 54.38424 18.43367 889 ft 194 kts 288°
2026-05-03 21:35 54.38887 18.41038 1752 ft 216 kts 288°
2026-05-03 21:36 54.39456 18.38494 2593 ft 242 kts 290°
2026-05-03 21:36 54.40094 18.35814 3589 ft 245 kts 291°
2026-05-03 21:36 54.40762 18.33097 4683 ft 250 kts 293°
2026-05-03 21:36 54.41523 18.30432 5648 ft 254 kts 292°
2026-05-03 21:37 54.42278 18.27636 5903 ft 260 kts 291°
2026-05-03 21:37 54.42839 18.24716 6010 ft 256 kts 273°
2026-05-03 21:37 54.42613 18.21731 6144 ft 255 kts 247°
2026-05-03 21:37 54.41586 18.19288 6900 ft 254 kts 222°
2026-05-03 21:38 54.40075 18.17688 8031 ft 259 kts 208°
2026-05-03 21:38 54.38417 18.16346 9064 ft 266 kts 207°
2026-05-03 21:38 54.36725 18.15029 10159 ft 268 kts 210°
2026-05-03 21:38 54.35254 18.13058 10802 ft 282 kts 233°
2026-05-03 21:39 54.34358 18.09994 11433 ft 297 kts 250°
2026-05-03 21:39 54.33645 18.06609 12175 ft 307 kts 250°
2026-05-03 21:39 54.32920 18.03165 13161 ft 309 kts 250°
2026-05-03 21:39 54.32190 17.99667 14039 ft 314 kts 250°
2026-05-03 21:40 54.31452 17.96120 14869 ft 318 kts 250°
2026-05-03 21:40 54.30708 17.92537 15688 ft 321 kts 250°
2026-05-03 21:40 54.29956 17.88917 16488 ft 325 kts 250°
2026-05-03 21:40 54.29205 17.85308 17284 ft 328 kts 250°
2026-05-03 21:41 54.28533 17.81561 18045 ft 332 kts 254°
2026-05-03 21:41 54.27914 17.77723 18662 ft 338 kts 253°
2026-05-03 21:41 54.27273 17.73830 19287 ft 341 kts 253°
2026-05-03 21:41 54.26621 17.69904 19931 ft 345 kts 253°
2026-05-03 21:42 54.25959 17.65934 20552 ft 349 kts 253°
2026-05-03 21:42 54.25290 17.61946 21179 ft 352 kts 253°
2026-05-03 21:42 54.24611 17.57902 21794 ft 356 kts 253°
2026-05-03 21:42 54.23922 17.53816 22384 ft 359 kts 252°
2026-05-03 21:43 54.23226 17.49691 22957 ft 364 kts 252°
2026-05-03 21:43 54.22520 17.45571 23510 ft 367 kts 250°
2026-05-03 21:43 54.21454 17.41599 23976 ft 370 kts 243°
2026-05-03 21:43 54.20301 17.37655 24462 ft 373 kts 243°
2026-05-03 21:44 54.19139 17.33676 24940 ft 376 kts 243°
2026-05-03 21:44 54.17964 17.29666 25415 ft 379 kts 243°
2026-05-03 21:44 54.16780 17.25632 25890 ft 382 kts 243°
2026-05-03 21:44 54.15586 17.21572 26343 ft 385 kts 243°
2026-05-03 21:45 54.14380 17.17479 26793 ft 387 kts 243°
2026-05-03 21:45 54.13575 17.14753 27117 ft 389 kts 243°
2026-05-03 21:45 54.12359 17.10638 27621 ft 390 kts 243°
2026-05-03 21:45 54.10729 17.05130 28168 ft 395 kts 243°
2026-05-03 21:46 54.09685 17.00799 28569 ft 398 kts 256°
2026-05-03 21:46 54.09179 16.96162 29021 ft 400 kts 258°
2026-05-03 21:46 54.08626 16.91499 29377 ft 404 kts 258°
2026-05-03 21:46 54.08265 16.88388 29657 ft 405 kts 258°
2026-05-03 21:47 54.07724 16.83660 30028 ft 408 kts 258°
2026-05-03 21:47 54.07185 16.78907 30367 ft 410 kts 258°
2026-05-03 21:47 54.06643 16.74124 30714 ft 412 kts 258°
2026-05-03 21:47 54.06097 16.69322 31045 ft 415 kts 258°
2026-05-03 21:48 54.05366 16.62918 31483 ft 418 kts 258°
2026-05-03 21:48 54.04809 16.58057 31813 ft 420 kts 258°
2026-05-03 21:48 54.04246 16.53165 32150 ft 422 kts 258°
2026-05-03 21:48 54.03871 16.49920 32383 ft 423 kts 258°
2026-05-03 21:49 54.03302 16.45006 32788 ft 423 kts 258°
2026-05-03 21:49 54.02733 16.40108 33239 ft 422 kts 258°
2026-05-03 21:49 54.02163 16.35225 33691 ft 421 kts 258°
2026-05-03 21:49 54.01594 16.30355 34096 ft 420 kts 258°
2026-05-03 21:50 54.01022 16.25496 34476 ft 419 kts 258°
2026-05-03 21:50 54.00265 16.19078 34954 ft 418 kts 258°
2026-05-03 21:50 53.99878 16.15809 35195 ft 417 kts 258°
2026-05-03 21:50 53.99303 16.10976 35545 ft 417 kts 258°
2026-05-03 21:51 53.98728 16.06157 35891 ft 416 kts 258°
2026-05-03 21:51 53.98160 16.01410 36217 ft 415 kts 257°
2026-05-03 21:51 53.97584 15.96610 36538 ft 415 kts 257°
2026-05-03 21:51 53.97005 15.91817 36887 ft 414 kts 257°
2026-05-03 21:52 53.96428 15.87041 37223 ft 412 kts 257°
2026-05-03 21:52 53.95850 15.82278 37522 ft 412 kts 257°
2026-05-03 21:52 53.95270 15.77523 37819 ft 411 kts 257°
2026-05-03 21:52 53.94690 15.72779 38102 ft 410 kts 257°
2026-05-03 21:53 53.94108 15.68038 38376 ft 410 kts 257°
2026-05-03 21:53 53.93526 15.63305 38620 ft 409 kts 257°
2026-05-03 21:53 53.92950 15.58646 38800 ft 409 kts 257°
2026-05-03 21:53 53.92364 15.53920 38953 ft 410 kts 257°
2026-05-03 21:54 53.91775 15.49185 39099 ft 411 kts 257°
2026-05-03 21:54 53.91184 15.44447 39246 ft 411 kts 257°
2026-05-03 21:54 53.90589 15.39701 39392 ft 412 kts 257°
2026-05-03 21:54 53.89992 15.34950 39534 ft 412 kts 257°
2026-05-03 21:55 53.89393 15.30200 39670 ft 413 kts 257°
2026-05-03 21:55 53.88791 15.25440 39806 ft 413 kts 257°
2026-05-03 21:55 53.87587 15.15978 39896 ft 414 kts 257°
2026-05-03 21:56 53.86369 15.06467 39892 ft 413 kts 257°
2026-05-03 21:56 53.85145 14.96970 39889 ft 413 kts 257°
2026-05-03 21:57 53.83912 14.87474 39886 ft 413 kts 257°
2026-05-03 21:57 53.82672 14.77982 39892 ft 413 kts 256°
2026-05-03 21:58 53.81431 14.68548 39887 ft 413 kts 256°
2026-05-03 21:58 53.80176 14.59068 39889 ft 413 kts 256°
2026-05-03 21:59 53.78914 14.49590 39885 ft 413 kts 256°
2026-05-03 21:59 53.77647 14.40118 39885 ft 413 kts 256°
2026-05-03 22:00 53.76373 14.30653 39884 ft 413 kts 256°
2026-05-03 22:00 53.76019 14.25912 39863 ft 413 kts 270°
2026-05-03 22:00 53.76139 14.21067 39905 ft 414 kts 268°
2026-05-03 22:01 53.76150 14.11329 39892 ft 415 kts 268°
2026-05-03 22:01 53.76177 14.01580 39881 ft 415 kts 268°
2026-05-03 22:02 53.76198 13.91834 39880 ft 415 kts 268°
2026-05-03 22:02 53.76212 13.82079 39879 ft 415 kts 268°
2026-05-03 22:03 53.76245 13.72397 39878 ft 415 kts 268°
2026-05-03 22:03 53.76265 13.62653 39886 ft 414 kts 268°
2026-05-03 22:04 53.76240 13.52923 39879 ft 414 kts 267°
2026-05-03 22:04 53.76151 13.43207 39876 ft 414 kts 267°
2026-05-03 22:05 53.76048 13.33489 39874 ft 414 kts 267°
2026-05-03 22:05 53.75939 13.23832 39867 ft 413 kts 266°
2026-05-03 22:06 53.75822 13.14119 39880 ft 413 kts 266°
2026-05-03 22:06 53.75697 13.04414 39875 ft 414 kts 266°
2026-05-03 22:07 53.75564 12.94683 39872 ft 414 kts 266°
2026-05-03 22:07 53.75424 12.84954 39876 ft 414 kts 266°
2026-05-03 22:08 53.75278 12.75296 39869 ft 414 kts 266°
2026-05-03 22:08 53.75124 12.65571 39866 ft 414 kts 266°
2026-05-03 22:09 53.74963 12.55844 39872 ft 415 kts 266°
2026-05-03 22:10 53.74706 12.41289 39864 ft 415 kts 266°
2026-05-03 22:10 53.74525 12.31543 39862 ft 415 kts 266°
2026-05-03 22:11 53.74335 12.21793 39861 ft 415 kts 265°
2026-05-03 22:11 53.74138 12.12048 39875 ft 415 kts 265°
2026-05-03 22:12 53.73932 12.02303 39890 ft 415 kts 265°
2026-05-03 22:12 53.73720 11.92614 39886 ft 416 kts 265°
2026-05-03 22:13 53.73499 11.82858 39885 ft 416 kts 265°
2026-05-03 22:13 53.73270 11.73097 39885 ft 416 kts 265°
2026-05-03 22:14 53.73032 11.63338 39883 ft 416 kts 265°
2026-05-03 22:14 53.72791 11.53648 39885 ft 416 kts 265°
2026-05-03 22:15 53.72461 11.43907 39881 ft 415 kts 263°
2026-05-03 22:15 53.72037 11.34185 39876 ft 415 kts 264°
2026-05-03 22:16 53.71617 11.24464 39878 ft 415 kts 264°
2026-05-03 22:16 53.71189 11.14722 39889 ft 417 kts 263°
2026-05-03 22:17 53.70756 11.05033 39883 ft 417 kts 263°
2026-05-03 22:17 53.70312 10.95281 39884 ft 417 kts 263°
2026-05-03 22:18 53.69858 10.85495 39887 ft 419 kts 263°
2026-05-03 22:18 53.69396 10.75697 39886 ft 419 kts 263°
2026-05-03 22:19 53.68929 10.65976 39885 ft 419 kts 263°
2026-05-03 22:19 53.68451 10.56189 39885 ft 419 kts 263°
2026-05-03 22:20 53.67965 10.46402 39888 ft 419 kts 263°
2026-05-03 22:20 53.67471 10.36620 39891 ft 418 kts 263°
2026-05-03 22:21 53.66973 10.26911 39908 ft 418 kts 263°
2026-05-03 22:21 53.66463 10.17138 39908 ft 418 kts 263°
2026-05-03 22:22 53.65945 10.07367 39915 ft 418 kts 263°
2026-05-03 22:22 53.65420 9.97599 39913 ft 419 kts 263°
2026-05-03 22:23 53.64886 9.87829 39910 ft 418 kts 263°
2026-05-03 22:23 53.64348 9.78128 39908 ft 419 kts 263°
2026-05-03 22:24 53.63799 9.68370 39912 ft 418 kts 263°
2026-05-03 22:24 53.63243 9.58622 39907 ft 418 kts 262°
2026-05-03 22:25 53.62677 9.48857 39904 ft 418 kts 262°
2026-05-03 22:25 53.62104 9.39101 39893 ft 418 kts 262°
2026-05-03 22:26 53.61527 9.29424 39889 ft 418 kts 262°
2026-05-03 22:26 53.60939 9.19684 39893 ft 418 kts 262°
2026-05-03 22:27 53.60342 9.09949 39890 ft 418 kts 262°
2026-05-03 22:27 53.59738 9.00216 39895 ft 418 kts 262°
2026-05-03 22:28 53.59126 8.90487 39892 ft 418 kts 262°
2026-05-03 22:28 53.58511 8.80827 39903 ft 418 kts 262°
2026-05-03 22:29 53.57883 8.71095 39891 ft 418 kts 262°
2026-05-03 22:29 53.57247 8.61367 39890 ft 418 kts 262°
2026-05-03 22:30 53.56602 8.51630 39890 ft 418 kts 262°
2026-05-03 22:30 53.55955 8.41976 39900 ft 418 kts 261°
2026-05-03 22:31 53.55295 8.32257 39906 ft 418 kts 261°
2026-05-03 22:31 53.54627 8.22536 39911 ft 419 kts 261°
2026-05-03 22:32 53.53951 8.12813 39908 ft 419 kts 261°
2026-05-03 22:32 53.53267 8.03096 39912 ft 418 kts 261°
2026-05-03 22:33 53.52581 7.93454 39913 ft 418 kts 261°
2026-05-03 22:33 53.51881 7.83744 39905 ft 419 kts 261°
2026-05-03 22:34 53.51174 7.74039 39922 ft 418 kts 261°
2026-05-03 22:34 53.50461 7.64365 39913 ft 417 kts 261°
2026-05-03 22:35 53.49741 7.54705 39905 ft 417 kts 261°
2026-05-03 22:35 53.49018 7.45109 39918 ft 417 kts 260°
2026-05-03 22:36 53.48282 7.35451 39908 ft 417 kts 260°
2026-05-03 22:36 53.47539 7.25798 39915 ft 417 kts 260°
2026-05-03 22:37 53.46786 7.16126 39921 ft 419 kts 260°
2026-05-03 22:37 53.46027 7.06478 39919 ft 420 kts 260°
2026-05-03 22:38 53.45254 6.96769 39914 ft 420 kts 260°
2026-05-03 22:38 53.44475 6.87071 39916 ft 420 kts 260°
2026-05-03 22:39 53.43687 6.77367 39909 ft 420 kts 260°
2026-05-03 22:39 53.42891 6.67665 39924 ft 420 kts 260°
2026-05-03 22:40 53.42092 6.58020 39916 ft 421 kts 260°
2026-05-03 22:40 53.41279 6.48317 39914 ft 420 kts 260°
2026-05-03 22:41 53.40458 6.38609 39916 ft 420 kts 259°
2026-05-03 22:41 53.39630 6.28911 39914 ft 420 kts 259°
2026-05-03 22:42 53.38800 6.19286 39919 ft 420 kts 259°
2026-05-03 22:42 53.37955 6.09586 39928 ft 421 kts 259°
2026-05-03 22:43 53.37101 5.99875 39928 ft 421 kts 259°
2026-05-03 22:43 53.36240 5.90172 39933 ft 421 kts 259°
2026-05-03 22:44 53.35375 5.80531 39935 ft 421 kts 259°
2026-05-03 22:44 53.34498 5.70835 39938 ft 421 kts 259°
2026-05-03 22:45 53.33613 5.61140 39935 ft 422 kts 259°
2026-05-03 22:45 53.32718 5.51434 39933 ft 422 kts 259°
2026-05-03 22:46 53.31815 5.41727 39934 ft 422 kts 259°
2026-05-03 22:46 53.30905 5.32030 39935 ft 422 kts 259°
2026-05-03 22:47 53.29992 5.22392 39936 ft 422 kts 259°
2026-05-03 22:47 53.29066 5.12700 39952 ft 422 kts 259°
2026-05-03 22:48 53.28130 5.02997 39938 ft 425 kts 259°
2026-05-03 22:48 53.27182 4.93253 39935 ft 425 kts 259°
2026-05-03 22:49 53.26232 4.83574 39936 ft 425 kts 259°
2026-05-03 22:49 53.25268 4.73835 39937 ft 425 kts 259°
2026-05-03 22:50 53.24298 4.64112 39935 ft 425 kts 259°
2026-05-03 22:50 53.23318 4.54383 39933 ft 425 kts 258°
2026-05-03 22:51 53.22336 4.44720 39933 ft 425 kts 258°
2026-05-03 22:51 53.21340 4.34998 39931 ft 425 kts 258°
2026-05-03 22:52 53.20336 4.25271 39936 ft 425 kts 258°
2026-05-03 22:52 53.19325 4.15562 39928 ft 425 kts 258°
2026-05-03 22:53 53.18313 4.05914 39920 ft 425 kts 258°
2026-05-03 22:53 53.17286 3.96180 39920 ft 427 kts 258°
2026-05-03 22:54 53.16250 3.86440 39925 ft 427 kts 258°
2026-05-03 22:54 53.15208 3.76711 39928 ft 427 kts 258°
2026-05-03 22:55 53.14157 3.66984 39935 ft 427 kts 258°
2026-05-03 22:55 53.13107 3.57331 39938 ft 427 kts 258°
2026-05-03 22:56 53.12040 3.47601 39931 ft 427 kts 258°
2026-05-03 22:56 53.10965 3.37864 39909 ft 428 kts 258°
2026-05-03 22:57 53.10365 3.28048 39900 ft 430 kts 274°
2026-05-03 22:57 53.10988 3.18124 39877 ft 432 kts 274°
2026-05-03 22:58 53.11646 3.08249 39888 ft 432 kts 274°
2026-05-03 22:58 53.12327 2.98305 39925 ft 432 kts 274°
2026-05-03 22:59 53.13003 2.88361 39925 ft 432 kts 274°
2026-05-03 22:59 53.13671 2.78405 39922 ft 432 kts 274°
2026-05-03 23:00 53.14330 2.68455 39923 ft 432 kts 274°
2026-05-03 23:00 53.14977 2.58567 39925 ft 432 kts 274°
2026-05-03 23:01 53.15621 2.48609 39925 ft 433 kts 274°
2026-05-03 23:01 53.15940 2.43610 39747 ft 433 kts 274°
2026-05-03 23:01 53.16256 2.38635 39444 ft 429 kts 274°
2026-05-03 23:01 53.16566 2.33720 39143 ft 425 kts 274°
2026-05-03 23:02 53.16872 2.28840 38845 ft 422 kts 274°
2026-05-03 23:02 53.17174 2.24000 38546 ft 418 kts 273°
2026-05-03 23:02 53.17467 2.19264 38181 ft 415 kts 273°
2026-05-03 23:02 53.17760 2.14499 37810 ft 412 kts 273°
2026-05-03 23:03 53.18049 2.09762 37403 ft 409 kts 273°
2026-05-03 23:03 53.18333 2.05069 36999 ft 405 kts 272°
2026-05-03 23:03 53.18614 2.00416 36614 ft 403 kts 272°
2026-05-03 23:03 53.18892 1.95781 36227 ft 400 kts 272°
2026-05-03 23:04 53.19165 1.91178 35851 ft 398 kts 272°
2026-05-03 23:04 53.19435 1.86604 35474 ft 395 kts 272°
2026-05-03 23:04 53.19701 1.82071 35097 ft 392 kts 272°
2026-05-03 23:04 53.19964 1.77564 34736 ft 389 kts 272°
2026-05-03 23:05 53.20219 1.73156 34378 ft 386 kts 271°
2026-05-03 23:05 53.20475 1.68711 34020 ft 383 kts 271°
2026-05-03 23:05 53.20727 1.64302 33614 ft 380 kts 271°
2026-05-03 23:05 53.20975 1.59930 33201 ft 377 kts 271°
2026-05-03 23:06 53.21219 1.55598 32792 ft 373 kts 271°
2026-05-03 23:06 53.21460 1.51303 32390 ft 370 kts 272°
2026-05-03 23:06 53.21697 1.47043 31997 ft 367 kts 272°
2026-05-03 23:06 53.21931 1.42816 31606 ft 365 kts 272°
2026-05-03 23:07 53.22162 1.38620 31215 ft 362 kts 272°
2026-05-03 23:07 53.22389 1.34460 30832 ft 359 kts 272°
2026-05-03 23:07 53.22609 1.30392 30459 ft 356 kts 272°
2026-05-03 23:07 53.22830 1.26292 30088 ft 353 kts 272°
2026-05-03 23:08 53.23047 1.22230 29662 ft 350 kts 272°
2026-05-03 23:08 53.23262 1.18197 29223 ft 348 kts 272°
2026-05-03 23:08 53.23473 1.14198 28790 ft 345 kts 272°
2026-05-03 23:08 53.23682 1.10223 28364 ft 342 kts 272°
2026-05-03 23:09 53.23888 1.06278 27944 ft 340 kts 272°
2026-05-03 23:09 53.24091 1.02361 27534 ft 338 kts 272°
2026-05-03 23:09 53.24289 0.98517 27139 ft 337 kts 272°
2026-05-03 23:09 53.24487 0.94640 26740 ft 336 kts 272°
2026-05-03 23:10 53.24684 0.90768 26333 ft 334 kts 272°
2026-05-03 23:10 53.24879 0.86910 25948 ft 333 kts 272°
2026-05-03 23:10 53.25072 0.83062 25578 ft 332 kts 273°
2026-05-03 23:10 53.25264 0.79219 25194 ft 332 kts 273°
2026-05-03 23:11 53.25454 0.75390 24815 ft 331 kts 273°
2026-05-03 23:11 53.25642 0.71562 24442 ft 330 kts 273°
2026-05-03 23:11 53.25829 0.67742 24068 ft 330 kts 273°
2026-05-03 23:11 53.26011 0.63986 23715 ft 329 kts 273°
2026-05-03 23:12 53.26195 0.60174 23326 ft 329 kts 273°
2026-05-03 23:12 53.26377 0.56374 22897 ft 328 kts 273°
2026-05-03 23:12 53.26558 0.52572 22476 ft 328 kts 273°
2026-05-03 23:12 53.26737 0.48786 22064 ft 327 kts 273°
2026-05-03 23:13 53.26914 0.45010 21654 ft 326 kts 273°
2026-05-03 23:13 53.27091 0.41238 21246 ft 325 kts 273°
2026-05-03 23:13 53.27264 0.37488 20851 ft 323 kts 273°
2026-05-03 23:13 53.27436 0.33755 20461 ft 321 kts 273°
2026-05-03 23:14 53.27606 0.30070 20211 ft 315 kts 273°
2026-05-03 23:14 53.27769 0.26497 19971 ft 310 kts 273°
2026-05-03 23:14 53.27931 0.22921 19708 ft 306 kts 273°
2026-05-03 23:14 53.28091 0.19390 19402 ft 304 kts 273°
2026-05-03 23:15 53.28248 0.15878 19110 ft 302 kts 273°
2026-05-03 23:15 53.28404 0.12386 18809 ft 301 kts 273°
2026-05-03 23:15 53.28558 0.08912 18515 ft 299 kts 273°
2026-05-03 23:15 53.28711 0.05454 18211 ft 298 kts 274°
2026-05-03 23:16 53.29193 0.02109 17859 ft 298 kts 292°
2026-05-03 23:16 53.30079 -0.00966 17540 ft 297 kts 293°
2026-05-03 23:16 53.30963 -0.04081 17210 ft 297 kts 294°
2026-05-03 23:16 53.31855 -0.07185 16870 ft 296 kts 294°
2026-05-03 23:17 53.32751 -0.10279 16546 ft 295 kts 294°
2026-05-03 23:17 53.33646 -0.13359 16221 ft 294 kts 294°
2026-05-03 23:17 53.34542 -0.16438 15898 ft 294 kts 294°
2026-05-03 23:17 53.35433 -0.19500 15590 ft 293 kts 294°
2026-05-03 23:18 53.36322 -0.22557 15269 ft 291 kts 294°
2026-05-03 23:18 53.37205 -0.25599 14955 ft 290 kts 294°
2026-05-03 23:18 53.38072 -0.28587 14649 ft 288 kts 294°
2026-05-03 23:18 53.38942 -0.31589 14393 ft 286 kts 294°
2026-05-03 23:19 53.39806 -0.34574 14161 ft 283 kts 294°
2026-05-03 23:19 53.40662 -0.37529 13928 ft 281 kts 294°
2026-05-03 23:19 53.41513 -0.40473 13686 ft 280 kts 294°
2026-05-03 23:19 53.42359 -0.43402 13428 ft 278 kts 294°
2026-05-03 23:20 53.43200 -0.46319 13171 ft 277 kts 294°
2026-05-03 23:20 53.44037 -0.49221 12929 ft 276 kts 294°
2026-05-03 23:20 53.44871 -0.52120 12666 ft 275 kts 294°
2026-05-03 23:20 53.45688 -0.54964 12429 ft 274 kts 294°
2026-05-03 23:21 53.46513 -0.57839 12175 ft 273 kts 294°
2026-05-03 23:21 53.47333 -0.60710 11925 ft 272 kts 294°
2026-05-03 23:21 53.48150 -0.63572 11678 ft 272 kts 294°
2026-05-03 23:21 53.48964 -0.66430 11429 ft 271 kts 294°
2026-05-03 23:22 53.50590 -0.72144 10885 ft 272 kts 294°
2026-05-03 23:22 53.51403 -0.75006 10577 ft 271 kts 294°
2026-05-03 23:22 53.52213 -0.77859 10269 ft 270 kts 294°
2026-05-03 23:23 53.53008 -0.80666 9967 ft 269 kts 294°
2026-05-03 23:23 53.53812 -0.83502 9647 ft 268 kts 294°
2026-05-03 23:23 53.54612 -0.86327 9305 ft 267 kts 294°
2026-05-03 23:23 53.55408 -0.89146 8975 ft 267 kts 294°
2026-05-03 23:24 53.56202 -0.91956 8641 ft 266 kts 294°
2026-05-03 23:24 53.56994 -0.94766 8314 ft 265 kts 294°
2026-05-03 23:24 53.57784 -0.97570 7993 ft 265 kts 294°
2026-05-03 23:24 53.58571 -1.00370 7665 ft 265 kts 294°
2026-05-03 23:25 53.59345 -1.03127 7361 ft 263 kts 294°
2026-05-03 23:25 53.60122 -1.05895 7092 ft 260 kts 294°
2026-05-03 23:25 53.60917 -1.08623 6789 ft 258 kts 299°
2026-05-03 23:25 53.61843 -1.11174 6590 ft 251 kts 301°
2026-05-03 23:26 53.62735 -1.13631 6402 ft 241 kts 300°
2026-05-03 23:26 53.63587 -1.16002 6207 ft 233 kts 300°
2026-05-03 23:26 53.64409 -1.18305 6004 ft 227 kts 300°
2026-05-03 23:26 53.65219 -1.20583 5814 ft 226 kts 301°
2026-05-03 23:27 53.66026 -1.22863 5625 ft 226 kts 301°
2026-05-03 23:27 53.66831 -1.25140 5443 ft 226 kts 301°
2026-05-03 23:27 53.67621 -1.27377 5250 ft 224 kts 301°
2026-05-03 23:27 53.68412 -1.29619 5018 ft 221 kts 301°
2026-05-03 23:28 53.69193 -1.31838 4777 ft 219 kts 301°
2026-05-03 23:28 53.69959 -1.34013 4565 ft 211 kts 301°
2026-05-03 23:28 53.70694 -1.36106 4310 ft 204 kts 302°
2026-05-03 23:28 53.71410 -1.38141 4056 ft 199 kts 302°
2026-05-03 23:29 53.72105 -1.40123 3798 ft 194 kts 303°
2026-05-03 23:29 53.72785 -1.42063 3545 ft 190 kts 303°
2026-05-03 23:29 53.73448 -1.43957 3330 ft 184 kts 304°
2026-05-03 23:29 53.74109 -1.45812 3141 ft 184 kts 306°
2026-05-03 23:30 53.74860 -1.47551 3010 ft 183 kts 313°
2026-05-03 23:30 53.75698 -1.49131 2963 ft 183 kts 317°
2026-05-03 23:30 53.76598 -1.50642 2980 ft 183 kts 320°
2026-05-03 23:30 53.77527 -1.52108 2982 ft 182 kts 321°
2026-05-03 23:31 53.78460 -1.53547 2988 ft 178 kts 321°
2026-05-03 23:31 53.79340 -1.54900 2999 ft 167 kts 322°
2026-05-03 23:31 53.80196 -1.56216 2989 ft 166 kts 322°
2026-05-03 23:31 53.81027 -1.57516 2848 ft 159 kts 321°
2026-05-03 23:32 53.81816 -1.58778 2650 ft 154 kts 321°
2026-05-03 23:32 53.82588 -1.60026 2537 ft 154 kts 321°
2026-05-03 23:32 53.83295 -1.61122 2447 ft 132 kts 327°
2026-05-03 23:32 53.84043 -1.62314 2316 ft 161 kts 321°
2026-05-03 23:33 53.84926 -1.63435 3136 ft 166 kts 333°
2026-05-03 23:33 53.86115 -1.64480 3042 ft 222 kts 336°
2026-05-03 23:33 53.87660 -1.65801 2893 ft 281 kts 332°
2026-05-03 23:33 53.89606 -1.67221 2875 ft 312 kts 350°
2026-05-03 23:34 53.91683 -1.67251 2911 ft 290 kts 14°
2026-05-03 23:34 53.93435 -1.65876 2909 ft 271 kts 39°
2026-05-03 23:34 53.94546 -1.63455 2904 ft 255 kts 67°
2026-05-03 23:34 53.94807 -1.60596 2900 ft 241 kts 96°
2026-05-03 23:35 53.94202 -1.58022 2906 ft 243 kts 125°
2026-05-03 23:35 53.92945 -1.56081 2910 ft 249 kts 141°
2026-05-03 23:35 53.91542 -1.54340 2893 ft 250 kts 141°
2026-05-03 23:35 53.90143 -1.52614 2904 ft 244 kts 141°
2026-05-03 23:36 53.88803 -1.50968 2897 ft 233 kts 141°
2026-05-03 23:36 53.87498 -1.49374 2913 ft 231 kts 142°
2026-05-03 23:36 53.86153 -1.47904 2937 ft 230 kts 145°
2026-05-03 23:36 53.84789 -1.46468 2925 ft 231 kts 145°
2026-05-03 23:37 53.83427 -1.45037 2895 ft 230 kts 145°
2026-05-03 23:37 53.82070 -1.43603 2891 ft 230 kts 145°
2026-05-03 23:37 53.80732 -1.42193 2897 ft 230 kts 145°
2026-05-03 23:37 53.79371 -1.40772 2894 ft 228 kts 145°
2026-05-03 23:38 53.78061 -1.39414 2891 ft 214 kts 145°
2026-05-03 23:38 53.76803 -1.38111 2962 ft 212 kts 145°
2026-05-03 23:38 53.75544 -1.36829 2927 ft 211 kts 149°
2026-05-03 23:38 53.74146 -1.36238 2777 ft 206 kts 179°
2026-05-03 23:39 53.72822 -1.36967 2547 ft 201 kts 218°
2026-05-03 23:39 53.72043 -1.38818 2299 ft 192 kts 257°
2026-05-03 23:39 53.72091 -1.40899 2085 ft 175 kts 294°
2026-05-03 23:39 53.72579 -1.42768 1993 ft 174 kts 300°
2026-05-03 23:40 53.73191 -1.44512 1947 ft 172 kts 309°
2026-05-03 23:40 53.73903 -1.46089 1876 ft 165 kts 315°
2026-05-03 23:40 53.74661 -1.47506 1853 ft 161 kts 319°
2026-05-03 23:40 53.75452 -1.48844 1904 ft 161 kts 321°
2026-05-03 23:41 53.76263 -1.50147 1978 ft 161 kts 322°
2026-05-03 23:41 53.77088 -1.51433 2006 ft 161 kts 322°
2026-05-03 23:41 53.77915 -1.52711 2001 ft 161 kts 323°
2026-05-03 23:41 53.78739 -1.53980 2008 ft 159 kts 322°
2026-05-03 23:42 53.79548 -1.55223 2027 ft 156 kts 322°
2026-05-03 23:42 53.80328 -1.56422 1952 ft 149 kts 322°
2026-05-03 23:42 53.81090 -1.57589 1777 ft 148 kts 322°
2026-05-03 23:42 53.81846 -1.58766 1693 ft 139 kts 321°
2026-05-03 23:43 53.82534 -1.59899 1434 ft 139 kts 320°
2026-05-03 23:43 53.83248 -1.60981 1201 ft 141 kts 323°
2026-05-03 23:43 53.83968 -1.62052 1066 ft 139 kts 321°
2026-05-03 23:43 53.84688 -1.63149 984 ft 138 kts 321°
2026-05-03 23:44 53.85380 -1.64222 832 ft 135 kts 319°
2026-05-03 23:44 53.86066 -1.65268 692 ft 130 kts 319°
2026-05-03 23:44 53.86625 -1.66112 669 ft 73 kts 318°
2026-05-03 23:44 53.86777 -1.66354 670 ft 2 kts 317°
2026-05-03 23:45 53.86866 -1.66490 673 ft 26 kts 318°
2026-05-03 23:45 53.87007 -1.66697 678 ft 28 kts 318°
2026-05-03 23:45 53.87093 -1.66826 680 ft 4 kts 324°
2026-05-03 23:45 53.87101 -1.66829 683 ft 4 kts 357°
2026-05-03 23:46 53.87109 -1.66823 682 ft 1 kts 24°
2026-05-03 23:46 53.87115 -1.66802 678 ft 4 kts 85°
2026-05-03 23:46 53.87081 -1.66726 682 ft 14 kts 148°
2026-05-03 23:46 53.86976 -1.66619 675 ft 9 kts 126°
2026-05-03 23:47 53.86975 -1.66561 675 ft 2 kts 67°
2026-05-03 23:47 53.86985 -1.66527 675 ft 7 kts 64°
2026-05-03 23:47 53.86986 -1.66419 675 ft 11 kts 113°
2026-05-03 23:47 53.86939 -1.66281 669 ft 15 kts 130°
2026-05-03 23:48 53.86867 -1.66164 669 ft 12 kts 137°
2026-05-03 23:48 53.86814 -1.66054 669 ft 11 kts 99°
2026-05-03 23:48 53.86814 -1.65910 668 ft 13 kts 90°
2026-05-03 23:48 53.86813 -1.65787 668 ft 8 kts 86°
2026-05-03 23:49 53.86820 -1.65678 667 ft 10 kts 87°
2026-05-03 23:49 53.86831 -1.65628 666 ft 1 kts 30°
2026-05-03 23:49 53.86849 -1.65621 667 ft 3 kts
2026-05-03 23:49 53.86859 -1.65621 667 ft 3 kts
2026-05-03 23:50 53.86876 -1.65620 668 ft 0 kts
2026-05-03 23:53 53.86882 -1.65619 668 ft 0 kts